| time (UTC) | temp F | wind direction | speed knots | gust knots | rain 1hr in | rain 24hr in | rain mn in | humidity % | barometer mb |
| 20260510044547 | 73 | 183 | 7.8 | 10.4 | 0.00 | 0.00 | 0.00 | 71 | 1010.9 |
| 20260510043045 | 74 | 163 | 7.8 | 9.6 | 0.00 | 0.00 | 0.00 | 70 | 1010.9 |
| 20260510041542 | 74 | 162 | 7.0 | 9.6 | 0.00 | 0.00 | 0.00 | 71 | 1011.0 |
| 20260510040040 | 74 | 165 | 7.0 | 9.6 | 0.00 | 0.00 | 0.00 | 72 | 1010.9 |
| 20260510034547 | 74 | 152 | 6.1 | 8.7 | 0.00 | 0.00 | 0.00 | 71 | 1010.9 |
| 20260510030229 | 77 | 144 | 7.8 | 10.4 | 0.00 | 0.00 | 0.00 | 65 | 1010.5 |
| 20260510024941 | 77 | 153 | 7.0 | 9.6 | 0.00 | 0.00 | 0.00 | 65 | 1010.3 |
| 20260510023044 | 78 | 161 | 7.0 | 8.7 | 0.00 | 0.00 | 0.00 | 63 | 1010.2 |
| 20260510021653 | 79 | 155 | 7.0 | 8.7 | 0.00 | 0.00 | 0.00 | 61 | 1010.0 |
| 20260510020044 | 81 | 153 | 7.0 | 9.6 | 0.00 | 0.00 | 0.00 | 59 | 1009.7 |
| 20260510014540 | 82 | 150 | 5.2 | 8.7 | 0.00 | 0.00 | 0.00 | 56 | 1009.5 |
| 20260510013049 | 83 | 142 | 4.3 | 7.8 | 0.00 | 0.00 | 0.00 | 54 | 1009.3 |
| 20260510011547 | 85 | 153 | 4.3 | 7.8 | 0.00 | 0.00 | 0.00 | 52 | 1009.2 |
| 20260510010044 | 86 | 162 | 6.1 | 9.6 | 0.00 | 0.00 | 0.00 | 49 | 1009.2 |
| 20260510004548 | 87 | 160 | 7.8 | 13.0 | 0.00 | 0.00 | 0.00 | 48 | 1009.2 |
| 20260510003051 | 87 | 174 | 7.0 | 13.0 | 0.00 | 0.00 | 0.00 | 44 | 1009.1 |
| 20260510001546 | 87 | 182 | 5.2 | 10.4 | 0.00 | 0.00 | 0.00 | 46 | 1009.0 |
| 20260510000046 | 87 | 193 | 7.0 | 11.3 | 0.00 | 0.00 | 0.00 | 43 | 1009.0 |
| 20260509234550 | 88 | 193 | 5.2 | 8.7 | 0.00 | 0.00 | 0.00 | 44 | 1009.0 |
| 20260509233043 | 88 | 194 | 4.3 | 7.8 | 0.00 | 0.00 | 0.00 | 43 | 1009.1 |
| 20260509231552 | 88 | 159 | 5.2 | 12.2 | 0.00 | 0.00 | 0.00 | 45 | 1009.3 |
| 20260509230050 | 88 | 210 | 7.8 | 13.0 | 0.00 | 0.00 | 0.00 | 44 | 1009.3 |
| 20260509224544 | 88 | 180 | 5.2 | 12.2 | 0.00 | 0.00 | 0.00 | 46 | 1009.3 |
| 20260509223044 | 87 | 182 | 7.0 | 13.0 | 0.00 | 0.00 | 0.00 | 48 | 1009.2 |
| 20260509221542 | 87 | 192 | 4.3 | 11.3 | 0.00 | 0.00 | 0.00 | 47 | 1009.4 |
| 20260509220042 | 87 | 178 | 7.8 | 13.9 | 0.00 | 0.00 | 0.00 | 45 | 1009.5 |
| 20260509214543 | 87 | 212 | 7.0 | 13.9 | 0.00 | 0.00 | 0.00 | 50 | 1009.6 |
| 20260509213055 | 86 | 169 | 7.0 | 13.0 | 0.00 | 0.00 | 0.00 | 50 | 1009.8 |
| 20260509211543 | 86 | 196 | 7.0 | 11.3 | 0.00 | 0.00 | 0.00 | 52 | 1010.0 |
| 20260509210100 | 86 | 204 | 5.2 | 13.0 | 0.00 | 0.00 | 0.00 | 50 | 1010.1 |
| 20260509204545 | 85 | 175 | 4.3 | 13.0 | 0.00 | 0.00 | 0.00 | 53 | 1010.4 |
| 20260509203043 | 85 | 238 | 8.7 | 13.9 | 0.00 | 0.00 | 0.00 | 54 | 1010.6 |
| 20260509201544 | 85 | 169 | 7.0 | 11.3 | 0.00 | 0.00 | 0.00 | 58 | 1010.9 |
| 20260509200044 | 84 | 217 | 8.7 | 12.2 | 0.00 | 0.00 | 0.00 | 57 | 1011.0 |
| 20260509194545 | 84 | 229 | 6.1 | 13.0 | 0.00 | 0.00 | 0.00 | 59 | 1011.2 |
| 20260509193045 | 83 | 200 | 7.0 | 12.2 | 0.00 | 0.00 | 0.00 | 59 | 1011.2 |
| 20260509191544 | 83 | 192 | 8.7 | 14.8 | 0.00 | 0.00 | 0.00 | 61 | 1011.3 |
| 20260509190044 | 82 | 173 | 7.8 | 13.9 | 0.00 | 0.00 | 0.00 | 61 | 1011.6 |
| 20260509184551 | 82 | 205 | 8.7 | 13.9 | 0.00 | 0.00 | 0.00 | 63 | 1011.9 |
| 20260509183046 | 81 | 205 | 7.0 | 10.4 | 0.00 | 0.00 | 0.00 | 66 | 1012.1 |
| 20260509181556 | 80 | 222 | 4.3 | 13.9 | 0.00 | 0.00 | 0.00 | 66 | 1012.3 |
| 20260509180048 | 79 | 232 | 7.8 | 13.0 | 0.00 | 0.00 | 0.00 | 66 | 1012.8 |
| 20260509174543 | 78 | 214 | 4.3 | 9.6 | 0.00 | 0.00 | 0.00 | 72 | 1012.8 |
| 20260509173045 | 77 | 219 | 5.2 | 12.2 | 0.00 | 0.00 | 0.00 | 74 | 1012.9 |
| 20260509171550 | 77 | 242 | 6.1 | 9.6 | 0.00 | 0.00 | 0.00 | 75 | 1013.0 |
| 20260509170051 | 76 | 207 | 4.3 | 8.7 | 0.00 | 0.00 | 0.00 | 76 | 1013.1 |
| 20260509164544 | 75 | 200 | 5.2 | 7.8 | 0.00 | 0.00 | 0.00 | 80 | 1013.1 |
| 20260509163043 | 72 | 209 | 6.1 | 8.7 | 0.00 | 0.00 | 0.00 | 84 | 1013.1 |
| 20260509161541 | 71 | 205 | 6.1 | 9.6 | 0.00 | 0.00 | 0.00 | 87 | 1013.2 |
| 20260509160044 | 70 | 217 | 6.1 | 10.4 | 0.00 | 0.00 | 0.00 | 90 | 1013.3 |
| 20260509154546 | 68 | 216 | 7.0 | 10.4 | 0.00 | 0.00 | 0.00 | 91 | 1013.3 |
| 20260509153058 | 67 | 201 | 7.0 | 12.2 | 0.00 | 0.00 | 0.00 | 92 | 1013.2 |
| 20260509151554 | 67 | 223 | 7.8 | 9.6 | 0.00 | 0.00 | 0.00 | 91 | 1013.6 |
| 20260509150046 | 66 | 236 | 2.6 | 6.1 | 0.00 | 0.00 | 0.00 | 92 | 1013.9 |
| 20260509144547 | 66 | 232 | 3.5 | 5.2 | 0.00 | 0.00 | 0.00 | 93 | 1013.7 |
| 20260509143051 | 65 | 302 | 0.0 | 2.6 | 0.00 | 0.00 | 0.00 | 93 | 1013.8 |
| 20260509141544 | 65 | 0 | 0.0 | 0.9 | 0.00 | 0.00 | 0.00 | 93 | 1013.7 |
| 20260509140048 | 64 | 0 | 0.0 | 3.5 | 0.00 | 0.00 | 0.00 | 94 | 1013.6 |
| 20260509134541 | 64 | 333 | 2.6 | 7.0 | 0.00 | 0.00 | 0.00 | 94 | 1013.5 |
| 20260509133050 | 63 | 9 | 4.3 | 6.1 | 0.00 | 0.00 | 0.00 | 94 | 1013.3 |
| 20260509131548 | 62 | 360 | 2.6 | 6.1 | 0.00 | 0.00 | 0.00 | 94 | 1013.1 |
| 20260509130045 | 61 | 5 | 2.6 | 7.8 | 0.00 | 0.00 | 0.00 | 95 | 1013.1 |
| 20260509124542 | 60 | 11 | 3.5 | 8.7 | 0.00 | 0.00 | 0.00 | 94 | 1013.1 |
| 20260509123053 | 61 | 336 | 4.3 | 7.0 | 0.00 | 0.00 | 0.00 | 94 | 1012.8 |
| 20260509121556 | 61 | 5 | 3.5 | 7.8 | 0.00 | 0.00 | 0.00 | 94 | 1012.5 |
| 20260509120454 | 61 | 175 | 5.2 | 7.8 | 0.00 | 0.00 | 0.00 | 94 | 1012.2 |
| 20260509113043 | 60 | 205 | 5.2 | 7.8 | 0.00 | 0.00 | 0.00 | 93 | 1012.1 |
| 20260509111546 | 60 | 206 | 5.2 | 6.1 | 0.00 | 0.00 | 0.00 | 93 | 1012.1 |
| 20260509110044 | 60 | 219 | 5.2 | 7.0 | 0.00 | 0.00 | 0.00 | 93 | 1012.1 |
| 20260509103043 | 61 | 154 | 2.6 | 6.1 | 0.00 | 0.00 | 0.00 | 92 | 1012.4 |
| 20260509101552 | 62 | 144 | 2.6 | 7.8 | 0.00 | 0.00 | 0.00 | 92 | 1012.2 |
| 20260509100057 | 62 | 40 | 3.5 | 6.1 | 0.00 | 0.00 | 0.00 | 92 | 1013.0 |
| 20260509094550 | 62 | 48 | 3.5 | 7.0 | 0.00 | 0.00 | 0.00 | 92 | 1012.9 |
| 20260509093043 | 62 | 115 | 5.2 | 7.8 | 0.00 | 0.00 | 0.00 | 92 | 1012.2 |
| 20260509091557 | 62 | 153 | 1.7 | 5.2 | 0.00 | 0.00 | 0.00 | 92 | 1012.5 |
| 20260509090047 | 62 | 0 | 1.7 | 7.0 | 0.00 | 0.00 | 0.00 | 92 | 1012.4 |
| 20260509084546 | 62 | 168 | 3.5 | 5.2 | 0.00 | 0.00 | 0.00 | 91 | 1012.1 |
| 20260509083051 | 62 | 322 | 1.7 | 4.3 | 0.00 | 0.00 | 0.00 | 91 | 1012.0 |
| 20260509081546 | 62 | 304 | 0.9 | 3.5 | 0.00 | 0.00 | 0.00 | 90 | 1012.3 |
| 20260509080051 | 62 | 304 | 1.7 | 4.3 | 0.00 | 0.00 | 0.00 | 90 | 1012.7 |
| 20260509074551 | 63 | 280 | 3.5 | 8.7 | 0.00 | 0.00 | 0.00 | 89 | 1012.5 |
| 20260509073111 | 65 | 275 | 4.3 | 8.7 | 0.00 | 0.00 | 0.00 | 88 | 1012.3 |
| 20260509071545 | 66 | 198 | 7.8 | 13.0 | 0.00 | 0.00 | 0.00 | 88 | 1011.3 |
| 20260509070048 | 65 | 199 | 7.0 | 11.3 | 0.00 | 0.00 | 0.00 | 89 | 1011.2 |
| 20260509064544 | 64 | 174 | 6.1 | 7.8 | 0.00 | 0.00 | 0.00 | 89 | 1011.2 |
| 20260509063047 | 64 | 166 | 5.2 | 7.8 | 0.00 | 0.00 | 0.00 | 89 | 1011.0 |
| 20260509061540 | 64 | 172 | 7.0 | 9.6 | 0.00 | 0.00 | 0.00 | 89 | 1011.0 |
| 20260509060058 | 64 | 161 | 7.0 | 9.6 | 0.00 | 0.00 | 0.00 | 89 | 1011.1 |
| 20260509054553 | 65 | 143 | 4.3 | 7.8 | 0.00 | 0.00 | 0.00 | 88 | 1010.9 |
| 20260509053051 | 65 | 151 | 2.6 | 6.1 | 0.00 | 0.00 | 0.00 | 88 | 1011.0 |
| 20260509051543 | 66 | 129 | 2.6 | 5.2 | 0.00 | 0.00 | 0.00 | 88 | 1011.0 |
| 20260509050045 | 65 | 155 | 5.2 | 7.0 | 0.00 | 0.00 | 0.00 | 89 | 1011.1 |